CDT,Max TemperatureF,Mean TemperatureF,Min TemperatureF,Max Dew PointF,MeanDew PointF,Min DewpointF,Max Humidity, Mean Humidity, Min Humidity, Max Sea Level PressureIn, Mean Sea Level PressureIn, Min Sea Level PressureIn, Max VisibilityMiles, Mean VisibilityMiles, Min VisibilityMiles, Max Wind SpeedMPH, Mean Wind SpeedMPH, Max Gust SpeedMPH,PrecipitationIn, CloudCover, Events, WindDirDegrees
2013-10-1,77,65,52,52,45,37,89,59,29,30.02,29.93,29.78,10,10,5,17,9,20,0.00,0,,51
2013-10-2,82,68,54,64,59,46,93,74,54,29.96,29.87,29.80,10,10,3,17,8,21,1.16,3,Thunderstorm,158
2013-10-3,72,65,57,63,59,54,97,85,73,29.82,29.77,29.73,10,10,3,20,12,25,0.65,7,Thunderstorm,95
2013-10-4,75,58,41,64,50,28,93,71,48,29.97,29.74,29.63,10,10,2,25,18,33,0.00,4,,209
2013-10-5,45,41,37,32,29,27,70,62,53,29.99,29.96,29.92,10,10,10,30,21,41,0.00,5,,282
2013-10-6,66,54,41,36,30,21,76,48,19,30.11,30.01,29.94,10,10,10,25,16,32,0.00,3,,317
2013-10-7,75,56,36,43,38,30,85,58,31,30.12,30.05,29.96,10,10,10,16,9,22,0.00,0,,212
2013-10-8,81,66,50,43,39,37,59,41,23,29.96,29.87,29.78,10,10,10,29,19,38,0.00,0,,176
2013-10-9,81,67,52,48,45,43,77,54,30,29.92,29.87,29.84,10,10,9,21,16,28,0.00,0,,160
2013-10-10,81,67,52,57,51,46,89,63,36,29.92,29.81,29.66,10,10,10,30,17,40,0.14,0,,159
2013-10-11,66,57,48,55,47,39,93,69,44,29.97,29.72,29.58,10,10,8,23,16,35,0.10,2,,231
2013-10-12,63,52,41,39,34,28,79,53,27,30.28,30.16,29.98,10,10,10,13,7,17,0.00,1,,311
2013-10-13,66,53,39,41,35,30,85,56,26,30.37,30.28,30.16,10,10,3,23,14,29,0.00,3,,130
2013-10-14,63,54,45,59,46,36,100,72,43,30.17,29.90,29.66,10,9,2,23,18,32,1.30,7,Thunderstorm,171
2013-10-15,48,44,39,36,32,30,70,62,53,30.17,30.07,29.92,10,10,10,27,18,33,0.00,5,,307
2013-10-16,57,46,34,36,31,25,82,57,32,30.17,30.07,29.97,10,10,10,13,7,,0.00,1,,280
2013-10-17,54,43,32,37,32,27,82,68,54,30.13,30.01,29.92,10,10,10,22,12,29,0.00,2,,305
2013-10-18,52,41,30,36,28,23,85,61,36,30.16,30.10,30.04,10,10,10,10,7,22,0.00,3,,281
2013-10-19,64,49,34,36,31,27,76,53,30,30.04,29.92,29.82,10,10,10,15,9,22,0.00,1,,258
2013-10-20,63,50,36,39,33,30,76,55,34,30.08,29.87,29.77,10,10,10,21,11,31,0.00,2,,313
2013-10-21,61,47,32,39,31,27,89,59,29,30.11,30.04,29.95,10,10,10,15,8,22,0.00,4,,274
2013-10-22,61,49,37,39,37,32,82,60,37,30.13,30.04,29.96,10,10,10,21,10,28,0.00,4,,315
2013-10-23,66,52,37,41,35,32,85,61,37,30.23,30.10,30.00,10,10,10,27,12,33,0.00,4,,275
2013-10-24,45,40,34,37,29,23,79,64,49,30.42,30.35,30.24,10,10,9,12,6,,0.00,8,,34
2013-10-25,57,46,34,36,31,27,82,61,40,30.35,30.22,30.07,10,10,9,27,13,32,0.00,1,,203
2013-10-26,55,45,34,37,29,21,79,53,27,30.29,30.18,30.07,10,10,10,18,10,22,0.00,0,,315
2013-10-27,72,53,34,39,33,25,76,52,27,30.13,29.93,29.81,10,10,7,15,9,21,0.00,0,,210
2013-10-28,48,42,36,37,34,30,86,71,56,30.13,30.06,29.94,10,10,10,24,17,29,0.00,4,,56
2013-10-29,43,40,37,41,39,37,96,89,82,30.08,30.01,29.95,10,4,0,15,12,,0.08,8,,20
2013-10-30,52,41,30,41,36,30,96,80,63,30.03,29.88,29.78,10,8,1,13,7,,0.01,5,Thunderstorm,332
2013-10-31,61,46,30,37,31,28,96,63,29,29.77,29.67,29.59,10,8,0,22,11,30,0.00,1,,286